Regional Weather Roundup
Issued by NWS

Home | Current Version | Previous Version | Graphics & Text | Print | Product List | Glossary On
Versions: 1 2 3 4 5 6 7 8 9 10 11 12 13 14 15 16 17 18 19 20 21 22 23 24 25 26 27 28 29 30 31 32 33 34 35 36 37 38 39 40 41 42 43 44 45 46 47 48 49 50
805
ASUS43 KMPX 291610
RWRMN
WEATHER ROUNDUP FOR MINNESOTA
NATIONAL WEATHER SERVICE TWIN CITIES/CHANHASSEN MN
1100 AM CDT THU SEP 29 2016


NOTE: "FAIR" INDICATES FEW OR NO CLOUDS BELOW 12,000 FEET WITH NO
SIGNIFICANT WEATHER AND/OR OBSTRUCTIONS TO VISIBILITY. N/A MEANS
CURRENT SKY AND/OR WEATHER CONDITIONS ARE NOT AVAILABLE.

MNZ060>063-068>070-291700-
   Twin Cities Metro

CITY           SKY/WX    TMP DP  RH WIND       PRES   REMARKS
TWIN CITIES    MOSUNNY   60  49  66 NE8       30.48S
ST PAUL        MOSUNNY   59  49  69 N10       30.49R
CRYSTAL        MOSUNNY  N/A N/A N/A E6        30.48R
BLAINE         MOSUNNY   59  54  82 E7        30.48S
LAKEVILLE      PTSUNNY   54  50  87 CALM      30.47S
EDEN PRAIRIE   MOSUNNY   59  49  69 NE6       30.47S
LAKEVILLE      PTSUNNY   54  50  87 CALM      30.47S
SOUTH ST PAUL  MOSUNNY   59  49  69 NE7       30.48R
LAKE ELMO      CLOUDY    59  52  77 NE9       30.48S
$$
MNZ001>005-007-008-013>017-022>024-027-028-291700-
   Northwest Minnesota

CITY           SKY/WX    TMP DP  RH WIND       PRES   REMARKS
BEMIDJI        CLOUDY    57  48  71 E3        30.51S
HALLOCK        SUNNY     61  50  67 S12       30.48S
ROSEAU         CLOUDY    59  48  67 S6        30.50S
WARROAD        MOSUNNY   59  48  67 SE6       30.51S
THIEF RVR FALL CLOUDY    59  44  57 S10       30.50S
CROOKSTON      PTSUNNY   59  48  67 S8        30.50S
FOSSTON          N/A    N/A N/A N/A MISG        N/A
DETROIT LAKES  CLOUDY    55  46  71 SE5       30.51S
MOORHEAD       CLOUDY    57  48  72 SE5       30.50F
PARK RAPIDS    CLOUDY    58  48  69 CALM      30.51S
MAHNOMEN       PTSUNNY   58  44  60 S6        30.50F
$$
MNZ006-009>011-018-025>026-291700-
   North Central Minnesota

CITY           SKY/WX    TMP DP  RH WIND       PRES   REMARKS
BAUDETTE       CLOUDY    57  49  74 SE6       30.52R
FLAG ISLAND    CLOUDY    57  45  62 S7        30.50R
INTL FALLS     CLOUDY    56  50  80 SE3       30.52S
WASKISH        CLOUDY    57  48  72 SE3       30.51F
BIG FORK       CLOUDY    55  50  82 CALM      30.52S
GRAND RAPIDS   CLOUDY    55  51  86 VRB3      30.54R
ORR            CLOUDY    55  46  71 CALM      30.50S
COOK           PTSUNNY   55  50  82 E3        30.53S
WALKER         CLOUDY    55  51  87 CALM      30.51S
$$
MNZ012-019>021-037-291700-
   Northeast Minnesota

CITY           SKY/WX    TMP DP  RH WIND       PRES   REMARKS
DULUTH         CLOUDY    56  50  80 E10       30.52R
ELY            CLOUDY    54  46  76 E5        30.53S
HIBBING        CLOUDY    55  50  83 VRB3      30.52S
EVELETH        CLOUDY    58  50  75 E5        30.53S
DULUTH HARBOR  CLOUDY    57  52  82 NE12      30.53S
TWO HARBORS    MOSUNNY   63  54  72 E9        30.51S
SILVER BAY     CLOUDY    61  50  67 E10       30.51S
GRAND MARAIS     N/A     59  46  62 E3        30.52R
G MARAIS ARPRT CLOUDY    54  41  62 N5        30.53S
$$
MNZ029>031-032-039>041-046>048-054>057-064-291700-
   West Central Minnesota

CITY           SKY/WX    TMP DP  RH WIND       PRES   REMARKS
FERGUS FALLS   CLOUDY    57  46  67 SE6       30.52S
MORRIS         CLOUDY    63  48  59 E12       30.49R
ALEXANDRIA     CLOUDY    58  48  69 E7        30.52S
ELBOW LAKE     CLOUDY    58  47  66 E6        30.50F
WADENA         CLOUDY    57  46  67 CALM      30.51S
GLENWOOD       MOSUNNY   57  50  77 E7        30.51S
BENSON         MOSUNNY   61  46  59 SE8       30.50R
ORTONVILLE     SUNNY     59  46  63 CALM      30.49S
MADISON        SUNNY     63  52  67 E7        30.49S
WILLMAR        FAIR      61  52  72 E10       30.51S
$$
MNZ033>034-036-042>043-049>051-058-059-291700-
   Central Minnesota

CITY           SKY/WX    TMP DP  RH WIND       PRES   REMARKS
ST CLOUD       PTSUNNY   57  50  77 VRB6      30.51R
SAUK CENTRE    CLOUDY    56  49  76 E8        30.51S
PAYNESVILLE    PTSUNNY   59  48  65 E9        30.51S
AITKIN         CLOUDY    59  50  72 CALM      30.50S
PINE RIVER     CLOUDY    57  50  77 CALM      30.53S
BRAINERD       CLOUDY    57  50  77 CALM      30.52R
STAPLES        CLOUDY    55  46  71 CALM      30.51S
LONG PRAIRIE   CLOUDY    55  48  76 NE3       30.52S
LITTLE FALLS   CLOUDY    55  48  76 E3        30.51S
LITCHFIELD     SUNNY     61  52  72 E9        30.50S
BUFFALO        PTSUNNY   58  49  71 NE10      30.51S
MAPLE LAKE     PTSUNNY   60  52  76 E13       30.51S
HUTCHINSON     SUNNY     60  51  71 E8        30.50S
$$
MNZ037-044-045-052-053-291700-
   East Central Minnesota

CITY           SKY/WX    TMP DP  RH WIND       PRES   REMARKS
PRINCETON        N/A     61  52  72 E8        30.50S
MORA           MOSUNNY   57  46  67 NE6       30.52S
CAMBRIDGE      PTSUNNY   59  46  63 NE7       30.49S
MOOSE LAKE     CLOUDY    55  50  82 NE3       30.50S
HINCKLEY       FAIR      57  50  77 E7        30.51S
CLOQUET        CLOUDY    55  46  71 E7        30.52S
MCGREGOR       CLOUDY    55  52  88 E5        30.52S
$$
MNZ071>073-080-081-089-090-097-098-291700-
   Southwest Minnesota

CITY           SKY/WX    TMP DP  RH WIND       PRES   REMARKS
MONTEVIDEO     SUNNY     63  48  59 SE3       30.50S
GRANITE FALLS  MOSUNNY   59  51  74 NE7       30.51S
CANBY          SUNNY     58  48  69 E5        30.50F
MARSHALL       SUNNY     56  49  77 NE3       30.49F
REDWOOD FALLS  CLOUDY    55  49  80 E3        30.49S
OLIVIA         CLOUDY    55  50  82 E5        30.48F
PIPESTONE      SUNNY     59  48  67 NE3       30.48S
WINDOM         SUNNY     57  52  82 NE7       30.48S
WORTHINGTON    MOSUNNY   57  50  77 NE6       30.48F
JACKSON        PTSUNNY   55  50  82 VRB5      30.47F
TRACY          SUNNY     57  50  77 NE6       30.49S
SLAYTON        SUNNY     55  48  76 NE3       30.49S
$$
MNZ065>067-074>077-082>085-091>093-291700-
   South Central Minnesota

CITY           SKY/WX    TMP DP  RH WIND       PRES   REMARKS
MANKATO        CLOUDY    53  50  89 N7        30.49R
NEW ULM        MOSUNNY   57  52  82 NE5       30.48S
ST JAMES       CLOUDY    55  52  88 CALM      30.49S
FAIRMONT       CLOUDY    50  48  93 N7        30.48S FOG
GLENCOE        SUNNY     59  53  80 NE5       30.48S
FARIBAULT      CLOUDY    54  52  94 NW6       30.47F
OWATONNA       PTSUNNY   55  50  82 N8        30.46S
WASECA         MOSUNNY   55  50  82 NE6       30.48S
ALBERT LEA     SUNNY     59  50  72 NE7       30.45R
$$
MNZ078>079-086>088-094>096-291700-
   Southeast Minnesota

CITY           SKY/WX    TMP DP  RH WIND       PRES   REMARKS
ROCHESTER      CLOUDY    53  50  89 N10       30.46R
RED WING       SUNNY     61  50  67 E6        30.44F
DODGE CENTER   CLOUDY    52  48  87 NE6       30.46R
WINONA         MOSUNNY   55  50  82 N3        30.44F
AUSTIN         SUNNY     59  50  72 N6        30.44S
PRESTON        MOSUNNY   53  49  86 N8        30.44S
$$
ABBREVIATIONS USED IN REMARKS
   TC - TEMPERATURES IN CELSIUS
  WCI - WIND CHILL INDEX
   HX - HEAT INDEX
  VSB - VISIBILITY
$$




USA.gov is the U.S. government's official web portal to all federal, state and local government web resources and services.